Location: Newark
(55.7816°N, 8.2389°E)
Time: 09:38:00
(UTC+00:00)

LilacSat-2 - Pass Details

Date: 26 February 2020
Orbit: 514 x 534 km, 97.5° (Epoch: 07 April)

Event Time Altitude Azimuth Distance (km) Brightness Sun altitude
Rises 05:17:23 0° 17° (NNE) 2,658 ? -10.5°
Reaches altitude 10° 05:19:31 10° 21° (NNE) 1,768 ? -10.2°
Maximum altitude 05:23:17 58° 101° (ESE) 618 ? -9.7°
Drops below altitude 10° 05:27:02 10° 182° (S) 1,764 ? -9.2°
Sets 05:29:10 0° 186° (S) 2,652 ? -8.9°
